Location: Guayaquil
(2.1667°S, 79.9000°W)
Time: 09:45:30
(UTC-05:00)

N. Korean satellite - Visible Passes

Search period start: 18 December 2017 00:00
Search period end: 28 December 2017 00:00
Orbit: 461 x 513 km, 97.2° (Epoch: 17 December)

Date Brightness Start Highest point End Pass type
(mag) Time Alt. Az. Time Alt. Az. Time Alt. Az.
18 Dec 9.3 19:19:09 10° SSW 19:22:04 23° W 19:25:00 10° NW visible
19 Dec 7.4 18:54:57 10° S 18:58:33 57° W 19:02:10 10° NNW visible
22 Dec 9.3 19:18:16 10° SSW 19:21:14 23° W 19:24:13 10° NW visible
23 Dec 7.4 18:54:05 10° S 18:57:42 58° W 19:01:22 10° NNW visible
25 Dec 10.4 19:43:19 10° WSW 19:43:51 10° WSW 19:44:24 10° W visible
26 Dec 9.3 19:17:19 10° SSW 19:20:20 24° WSW 19:23:23 10° NW visible
27 Dec 7.3 18:53:09 10° S 18:56:49 60° W 19:00:29 10° NNW visible
